PD2SKZ-12 Weather Reports


time (UTC)temp
C
wind
direction
speed
KPH
gust
KPH
rain 1hr
cm
rain 24hr
cm
rain mn
cm
humidity
%
barometer
mb
20260507090159 15 0.0 4.8 0.00 0.00 0.00 51 1017.3
20260507085636 15 312 3.2 8.0 0.00 0.00 0.00 51 1017.3
20260507085136 15 0.0 3.2 0.00 0.00 0.00 51 1017.2
20260507084636 15 0.0 3.2 0.00 0.00 0.00 52 1017.2
20260507084136 14 6 3.2 9.7 0.00 0.00 0.00 53 1017.2
20260507083636 15 289 3.2 4.8 0.00 0.00 0.00 54 1017.2
20260507083136 15 268 1.6 3.2 0.00 0.00 0.00 54 1017.2
20260507082636 14 289 3.2 6.4 0.00 0.00 0.00 56 1017.3
20260507082136 13 284 1.6 6.4 0.00 0.00 0.00 56 1017.3
20260507081636 15 323 6.4 8.0 0.00 0.00 0.00 53 1017.3
20260507081137 14 308 0.0 8.0 0.00 0.00 0.00 56 1017.3
20260507080637 13 318 4.8 8.0 0.00 0.00 0.00 55 1017.3
20260507080136 15 260 3.2 3.2 0.00 0.00 0.00 53 1017.2
20260507075636 13 2 3.2 6.4 0.00 0.00 0.00 57 1017.2
20260507075136 13 185 1.6 6.4 0.00 0.00 0.00 59 1017.2
20260507074637 13 57 0.0 4.8 0.00 0.00 0.00 59 1017.2
20260507074146 13 309 6.4 6.4 0.00 0.00 0.00 59 1017.1
20260507073536 13 0.0 4.8 0.00 0.00 0.00 61 1017.0
20260507073037 12 289 1.6 4.8 0.00 0.00 0.00 64 1017.1
20260507072536 12 305 3.2 8.0 0.00 0.00 0.00 66 1017.0
20260507072037 12 310 6.4 11.3 0.00 0.00 0.00 66 1017.1
20260507071537 12 22 1.6 6.4 0.00 0.00 0.00 66 1017.0
20260507071037 12 295 4.8 6.4 0.00 0.00 0.00 64 1017.0
20260507070537 12 0.0 4.8 0.00 0.00 0.00 67 1017.0
20260507070036 12 0.0 3.2 0.00 0.00 0.00 66 1017.0
20260507065536 12 0.0 6.4 0.00 0.00 0.00 68 1017.0
20260507065007 12 271 3.2 9.7 0.00 0.00 0.00 67 1016.9
20260507064547 11 299 6.4 6.4 0.00 0.00 0.00 70 1017.0
20260507063837 12 103 1.6 4.8 0.00 0.00 0.00 68 1016.9
20260507063337 11 0.0 3.2 0.00 0.00 0.00 70 1016.9
20260507062837 11 315 4.8 8.0 0.00 0.00 0.00 72 1016.9
20260507062337 11 0.0 8.0 0.00 0.00 0.00 71 1016.9
20260507061837 11 209 1.6 3.2 0.00 0.00 0.00 72 1016.9
20260507061356 11 311 6.4 8.0 0.00 0.00 0.00 73 1016.9
20260507060836 11 329 3.2 6.4 0.00 0.00 0.00 73 1016.8
20260507060337 10 273 1.6 3.2 0.00 0.00 0.00 76 1016.8
20260507055837 10 278 1.6 3.2 0.00 0.00 0.00 76 1016.8
20260507055307 10 294 4.8 4.8 0.00 0.00 0.00 75 1016.8
20260507054707 10 0.0 1.6 0.00 0.00 0.00 79 1016.7
20260507054137 10 0.0 0.0 0.00 0.00 0.00 80 1016.6
20260507053637 8 300 0.0 1.6 0.00 0.00 0.00 85 1016.6
20260507053137 8 0.0 0.0 0.00 0.00 0.00 87 1016.6
20260507052718 7 0.0 0.0 0.00 0.00 0.00 89 1016.5
20260507052137 7 0.0 0.0 0.00 0.00 0.00 90 1016.4
20260507051637 7 0.0 0.0 0.00 0.00 0.00 91 1016.4
20260507051137 7 0.0 0.0 0.00 0.00 0.00 91 1016.4
20260507050637 7 0.0 0.0 0.00 0.00 0.00 92 1016.3
20260507050137 6 0.0 0.0 0.00 0.00 0.00 92 1016.2
20260507045607 6 0.0 0.0 0.00 0.00 0.00 92 1016.2
20260507045006 6 0.0 0.0 0.00 0.00 0.00 92 1016.1
20260507044437 6 0.0 0.0 0.00 0.00 0.00 92 1015.9
20260507043937 6 0.0 0.0 0.00 0.00 0.00 92 1015.9
20260507043436 6 0.0 0.0 0.00 0.00 0.00 92 1015.9
20260507042936 6 0.0 0.0 0.00 0.00 0.00 91 1015.9
20260507042437 6 0.0 0.0 0.00 0.00 0.00 91 1015.9
20260507041937 6 0.0 0.0 0.00 0.00 0.00 91 1015.9
20260507041437 6 0.0 0.0 0.00 0.00 0.00 91 1015.9
20260507040957 6 0.0 0.0 0.00 0.00 0.00 91 1015.8
20260507040437 6 0.0 0.0 0.00 0.00 0.00 90 1015.8
20260507035927 6 0.0 0.0 0.00 0.00 0.00 90 1015.7
20260507035307 6 0.0 0.0 0.00 0.00 0.00 90 1015.8
20260507034837 6 0.0 0.0 0.00 0.00 0.00 90 1015.7
20260507034337 6 309 1.6 3.2 0.00 0.00 0.00 90 1015.7
20260507033837 6 309 1.6 3.2 0.00 0.00 0.00 90 1015.7
20260507033356 6 0.0 1.6 0.00 0.00 0.00 89 1015.7
20260507032837 6 0.0 0.0 0.00 0.00 0.00 89 1015.6
20260507032337 7 0.0 0.0 0.00 0.00 0.00 89 1015.5
20260507031838 7 0.0 0.0 0.00 0.00 0.00 89 1015.5
20260507031356 7 0.0 0.0 0.00 0.00 0.00 88 1015.5
20260507030837 7 304 0.0 3.2 0.00 0.00 0.00 88 1015.4
20260507030337 7 304 0.0 3.2 0.00 0.00 0.00 88 1015.4
20260507025857 7 304 3.2 3.2 0.00 0.00 0.00 88 1015.4
20260507025337 7 304 1.6 3.2 0.00 0.00 0.00 88 1015.5
20260507024857 7 304 0.0 1.6 0.00 0.00 0.00 88 1015.4
20260507024307 7 0.0 3.2 0.00 0.00 0.00 88 1015.4
20260507023737 7 0.0 0.0 0.00 0.00 0.00 88 1015.3
20260507023237 7 0.0 0.0 0.00 0.00 0.00 88 1015.3
20260507022737 7 0.0 0.0 0.00 0.00 0.00 87 1015.3
20260507022237 7 304 1.6 3.2 0.00 0.00 0.00 87 1015.3
20260507021738 7 304 3.2 3.2 0.00 0.00 0.00 87 1015.3
20260507021236 7 304 1.6 6.4 0.00 0.00 0.00 87 1015.3
20260507020737 7 313 1.6 3.2 0.00 0.00 0.00 87 1015.2
20260507020237 7 313 1.6 4.8 0.00 0.00 0.00 87 1015.2
20260507015737 7 313 1.6 4.8 0.00 0.00 0.00 87 1015.1
20260507015237 7 320 1.6 3.2 0.00 0.00 0.00 87 1015.1
20260507014737 7 310 3.2 4.8 0.00 0.00 0.00 87 1015.1
20260507014237 7 307 4.8 8.0 0.00 0.00 0.00 87 1015.0
20260507013737 7 321 4.8 4.8 0.00 0.00 0.00 87 1015.0
20260507013237 7 315 4.8 6.4 0.00 0.00 0.00 87 1015.0
20260507012707 7 324 1.6 6.4 0.00 0.00 0.00 87 1015.0
20260507012157 7 311 1.6 4.8 0.00 0.00 0.00 87 1015.0
20260507011637 8 301 3.2 6.4 0.00 0.00 0.00 87 1014.9
20260507011137 8 315 1.6 4.8 0.00 0.00 0.00 87 1014.9
20260507010637 8 298 3.2 4.8 0.00 0.00 0.00 87 1014.9
20260507010137 8 314 3.2 8.0 0.00 0.00 0.00 87 1014.9
20260507005657 8 307 3.2 6.4 0.00 0.00 0.00 87 1014.9
20260507005137 8 315 4.8 6.4 0.00 0.00 0.00 87 1014.9
20260507004637 8 310 3.2 6.4 0.00 0.00 0.00 87 1014.8
20260507004137 8 0.0 3.2 0.00 0.00 0.00 86 1014.9
20260507003637 8 308 3.2 6.4 0.00 0.00 0.00 86 1014.9
20260507003137 8 325 4.8 4.8 0.00 0.00 0.00 86 1014.8
20260507002637 8 270 1.6 6.4 0.00 0.00 0.00 86 1014.8
20260507002137 8 283 1.6 4.8 0.00 0.00 0.00 86 1014.7
20260507001637 8 296 3.2 4.8 0.00 0.00 0.00 86 1014.6
20260507001137 8 312 3.2 6.4 0.00 0.00 0.00 85 1014.6
20260507000637 8 300 1.6 4.8 0.00 0.00 0.00 85 1014.7
20260507000137 8 326 3.2 9.7 0.00 0.00 0.00 85 1014.7
20260506235637 8 322 4.8 6.4 0.00 0.00 0.00 85 1014.7
20260506235138 8 298 3.2 6.4 0.00 0.00 0.00 85 1014.6
20260506234637 8 326 4.8 6.4 0.00 0.00 0.00 84 1014.6
20260506234137 8 296 1.6 4.8 0.00 0.00 0.00 84 1014.6
20260506233637 8 307 3.2 6.4 0.00 0.00 0.00 84 1014.6
20260506233137 8 295 3.2 4.8 0.00 0.00 0.00 83 1014.6
20260506232637 8 300 0.0 4.8 0.00 0.00 0.00 83 1014.4
20260506232137 9 320 3.2 4.8 0.00 0.00 0.00 83 1014.5
20260506231637 9 324 6.4 9.7 0.00 0.00 0.00 82 1014.5
20260506231137 9 328 4.8 6.4 0.00 0.00 0.00 82 1014.5
20260506230637 9 309 4.8 8.0 0.00 0.00 0.00 81 1014.5
20260506230157 9 306 3.2 8.0 0.00 0.00 0.00 81 1014.4
20260506225637 9 300 3.2 8.0 0.00 0.00 0.00 80 1014.5
20260506225157 9 309 4.8 11.3 0.00 0.00 0.00 80 1014.4
20260506224637 9 312 4.8 6.4 0.00 0.00 0.00 79 1014.4
20260506224137 10 296 4.8 8.0 0.00 0.00 0.00 79 1014.4
20260506223737 10 346 3.2 11.3 0.00 0.00 0.00 78 1014.4
20260506223137 10 296 4.8 8.0 0.00 0.00 0.00 78 1014.3
20260506222637 10 313 8.0 12.9 0.00 0.00 0.00 77 1014.3
20260506222138 10 313 3.2 9.7 0.00 0.00 0.00 76 1014.3
20260506221638 10 313 3.2 4.8 0.00 0.00 0.00 76 1014.3
20260506221157 10 322 4.8 9.7 0.00 0.00 0.00 75 1014.3
20260506220637 10 339 4.8 11.3 0.00 0.00 0.00 75 1014.2
20260506220157 10 293 4.8 8.0 0.00 0.00 0.00 74 1014.2
20260506215637 10 326 4.8 4.8 0.00 0.00 0.00 74 1014.1
20260506215137 10 308 6.4 9.7 0.00 0.00 0.00 73 1014.1
20260506214657 10 304 4.8 6.4 0.00 0.00 0.00 72 1014.1
20260506214137 11 332 3.2 8.0 0.00 0.00 0.00 71 1014.0
20260506213637 11 314 4.8 12.9 0.00 0.00 0.00 71 1014.0
20260506213137 11 351 3.2 6.4 0.00 0.00 0.00 70 1014.0
20260506212637 11 312 8.0 11.3 0.00 0.00 0.00 68 1013.9
20260506212137 11 320 8.0 11.3 0.00 0.00 0.00 67 1013.9
20260506211637 11 313 4.8 11.3 0.00 0.00 0.00 66 1013.9
20260506211157 11 318 6.4 12.9 0.00 0.00 0.00 65 1013.8
20260506210637 11 342 6.4 11.3 0.00 0.00 0.00 64 1013.7
20260506210137 11 298 1.6 8.0 0.00 0.00 0.00 64 1013.7
20260506205637 12 275 3.2 11.3 0.00 0.00 0.00 64 1013.7
20260506205137 12 293 4.8 12.9 0.00 0.00 0.00 64 1013.7
20260506204638 12 300 8.0 9.7 0.00 0.00 0.00 64 1013.6
20260506204158 12 313 4.8 4.8 0.00 0.00 0.00 64 1013.5
20260506203637 12 314 6.4 6.4 0.00 0.00 0.00 64 1013.5
20260506203137 12 318 4.8 9.7 0.00 0.00 0.00 64 1013.5
20260506202657 12 325 8.0 12.9 0.00 0.00 0.00 63 1013.4
20260506202137 12 298 9.7 12.9 0.00 0.00 0.00 64 1013.5
20260506201657 12 304 3.2 6.4 0.00 0.00 0.00 64 1013.4
20260506201137 12 297 6.4 8.0 0.00 0.00 0.00 63 1013.4
20260506200637 12 298 6.4 11.3 0.00 0.00 0.00 64 1013.3
20260506200138 12 316 1.6 6.4 0.00 0.00 0.00 63 1013.3
20260506195638 12 296 3.2 8.0 0.00 0.00 0.00 63 1013.2
20260506195137 12 318 9.7 12.9 0.00 0.00 0.00 63 1013.2
20260506194637 12 276 4.8 11.3 0.00 0.00 0.00 62 1013.2
20260506194137 12 187 0.0 4.8 0.00 0.00 0.00 62 1013.1
20260506193637 12 148 1.6 1.6 0.00 0.00 0.00 61 1013.1
20260506193217 13 290 3.2 3.2 0.00 0.00 0.00 61 1012.9
20260506192637 12 305 3.2 6.4 0.00 0.00 0.00 61 1012.9
20260506192137 13 0.0 3.2 0.00 0.00 0.00 61 1012.9
20260506191638 12 269 3.2 6.4 0.00 0.00 0.00 61 1012.9
20260506191137 13 292 1.6 4.8 0.00 0.00 0.00 60 1012.8
20260506190640 13 295 3.2 11.3 0.00 0.00 0.00 60 1012.7
20260506190137 13 131 1.6 3.2 0.00 0.00 0.00 60 1012.6
20260506185638 13 105 1.6 8.0 0.00 0.00 0.00 60 1012.6
20260506185158 13 101 4.8 8.0 0.00 0.00 0.00 59 1012.5
20260506184637 13 294 3.2 4.8 0.00 0.00 0.00 59 1012.4
20260506184217 13 295 6.4 9.7 0.00 0.00 0.00 59 1012.3
20260506183637 13 272 3.2 9.7 0.00 0.00 0.00 58 1012.3
20260506183138 13 286 6.4 11.3 0.00 0.00 0.00 57 1012.2
20260506182638 13 296 4.8 11.3 0.00 0.00 0.00 56 1012.1
20260506182137 13 344 3.2 8.0 0.00 0.00 0.00 55 1012.1
20260506181717 13 289 3.2 6.4 0.00 0.00 0.00 54 1012.0
20260506181137 13 323 1.6 11.3 0.00 0.00 0.00 53 1012.0
20260506180627 13 309 1.6 3.2 0.00 0.00 0.00 52 1011.9
20260506180138 13 226 3.2 4.8 0.00 0.00 0.00 52 1011.9
20260506175637 13 314 8.0 11.3 0.00 0.00 0.00 51 1011.9
20260506175158 13 275 3.2 8.0 0.00 0.00 0.00 51 1011.8
20260506174638 13 317 3.2 11.3 0.00 0.00 0.00 51 1011.7
20260506174138 13 105 4.8 8.0 0.00 0.00 0.00 50 1011.6
20260506173637 13 276 3.2 9.7 0.00 0.00 0.00 50 1011.5
20260506173140 13 315 4.8 8.0 0.00 0.00 0.00 50 1011.5
20260506172638 13 354 6.4 14.5 0.00 0.00 0.00 49 1011.4
20260506172138 13 288 1.6 8.0 0.00 0.00 0.00 48 1011.4
20260506171638 13 348 3.2 11.3 0.00 0.00 0.00 48 1011.4
20260506171137 13 280 4.8 8.0 0.00 0.00 0.00 48 1011.3
20260506170658 14 220 1.6 1.6 0.00 0.00 0.00 47 1011.3
20260506170137 14 0.0 3.2 0.00 0.00 0.00 48 1011.3
20260506165638 14 340 0.0 3.2 0.00 0.00 0.00 48 1011.3
20260506165217 14 152 1.6 4.8 0.00 0.00 0.00 50 1011.2
20260506164637 14 160 1.6 6.4 0.00 0.00 0.00 49 1011.2
20260506164137 15 143 3.2 6.4 0.00 0.00 0.00 50 1011.3
20260506163638 15 145 0.0 3.2 0.00 0.00 0.00 48 1011.2
20260506163138 15 0.0 4.8 0.00 0.00 0.00 47 1011.2
20260506162637 15 73 3.2 6.4 0.00 0.00 0.00 47 1011.2
20260506162137 15 257 1.6 4.8 0.00 0.00 0.00 47 1011.2
20260506161638 15 177 3.2 6.4 0.00 0.00 0.00 46 1011.2
20260506161138 15 286 1.6 3.2 0.00 0.00 0.00 46 1011.2
20260506160638 15 224 0.0 3.2 0.00 0.00 0.00 46 1011.1
20260506160138 15 247 1.6 6.4 0.00 0.00 0.00 45 1011.1
20260506155640 15 112 1.6 3.2 0.00 0.00 0.00 46 1011.1
20260506155137 15 0.0 3.2 0.00 0.00 0.00 46 1011.2
20260506154658 15 235 4.8 14.5 0.00 0.00 0.00 45 1011.1
20260506154137 15 197 4.8 8.0 0.00 0.00 0.00 44 1011.1
20260506153638 15 277 6.4 9.7 0.00 0.00 0.00 44 1011.1
20260506153138 15 287 4.8 8.0 0.00 0.00 0.00 43 1011.0
20260506152658 15 252 4.8 9.7 0.00 0.00 0.00 42 1011.1
20260506152138 15 275 6.4 11.3 0.00 0.00 0.00 42 1011.1
20260506151638 15 137 1.6 6.4 0.00 0.00 0.00 41 1011.0
20260506151137 15 293 6.4 12.9 0.00 0.00 0.00 41 1011.1
20260506150638 16 298 4.8 11.3 0.00 0.00 0.00 40 1011.0
20260506150138 15 359 4.8 16.1 0.00 0.00 0.00 40 1011.0
20260506145638 16 291 4.8 12.9 0.00 0.00 0.00 40 1011.0
20260506145137 16 260 6.4 9.7 0.00 0.00 0.00 39 1011.0
20260506144738 16 220 4.8 16.1 0.00 0.00 0.00 38 1011.0
20260506144138 16 294 3.2 11.3 0.00 0.00 0.00 40 1011.1
20260506143718 16 308 8.0 22.5 0.00 0.00 0.00 40 1011.0
20260506143157 16 242 6.4 9.7 0.00 0.00 0.00 40 1011.0
20260506142638 16 180 4.8 8.0 0.00 0.00 0.00 41 1011.0
20260506142141 16 200 6.4 9.7 0.00 0.00 0.00 41 1011.1
20260506141638 16 214 6.4 11.3 0.00 0.00 0.00 41 1011.0
20260506141138 15 163 12.9 17.7 0.00 0.00 0.00 42 1011.1
20260506140658 15 283 4.8 8.0 0.00 0.00 0.00 42 1011.0
20260506140138 16 308 4.8 8.0 0.00 0.00 0.00 42 1011.1
20260506135638 15 352 8.0 14.5 0.00 0.00 0.00 43 1010.9
20260506135138 15 40 3.2 16.1 0.00 0.00 0.00 43 1011.0
20260506134639 16 281 4.8 14.5 0.00 0.00 0.00 43 1010.9
20260506134158 16 293 3.2 6.4 0.00 0.00 0.00 41 1010.9
20260506133638 16 54 4.8 8.0 0.00 0.00 0.00 41 1010.8
20260506133138 16 157 4.8 16.1 0.00 0.00 0.00 40 1010.9
20260506132658 16 95 8.0 11.3 0.00 0.00 0.00 40 1010.9
20260506132138 16 329 4.8 12.9 0.00 0.00 0.00 42 1010.9
20260506131638 16 143 4.8 9.7 0.00 0.00 0.00 40 1010.8
20260506131138 15 312 9.7 16.1 0.00 0.00 0.00 42 1010.9
20260506130638 15 294 8.0 19.3 0.00 0.00 0.00 44 1010.8
20260506130138 16 290 6.4 12.9 0.00 0.00 0.00 44 1010.8
20260506125638 15 119 6.4 16.1 0.00 0.00 0.00 44 1010.8
20260506125159 15 309 9.7 11.3 0.00 0.00 0.00 44 1010.7
20260506124641 16 290 4.8 11.3 0.00 0.00 0.00 42 1010.7
20260506124138 16 274 3.2 9.7 0.00 0.00 0.00 45 1010.8
20260506123639 15 73 3.2 11.3 0.00 0.00 0.00 49 1010.8
20260506123138 15 291 4.8 8.0 0.00 0.00 0.00 52 1010.8
20260506122638 14 302 17.7 20.9 0.00 0.00 0.00 52 1010.7
20260506122138 15 272 8.0 12.9 0.00 0.00 0.00 48 1010.7
20260506121638 15 231 4.8 6.4 0.00 0.00 0.00 49 1010.6
20260506121138 15 348 3.2 14.5 0.00 0.00 0.00 48 1010.7
20260506120638 15 295 9.7 12.9 0.00 0.00 0.00 48 1010.7
20260506120138 15 344 9.7 11.3 0.00 0.00 0.00 46 1010.5
20260506115659 15 299 8.0 17.7 0.00 0.00 0.00 45 1010.6
20260506115138 15 257 3.2 6.4 0.00 0.00 0.00 46 1010.5
20260506114638 15 301 12.9 14.5 0.00 0.00 0.00 45 1010.5
20260506114138 15 323 12.9 22.5 0.00 0.00 0.00 46 1010.5
20260506113638 15 113 9.7 9.7 0.00 0.00 0.00 53 1010.6
20260506113138 15 295 8.0 11.3 0.00 0.00 0.00 52 1010.6
20260506112608 14 267 3.2 9.7 0.00 0.00 0.00 57 1010.5
20260506112038 13 344 8.0 14.5 0.00 0.00 0.00 61 1010.5
20260506111538 13 312 8.0 16.1 0.00 0.00 0.00 61 1010.6
20260506111038 13 313 9.7 11.3 0.00 0.00 0.00 61 1010.7
20260506110538 13 37 6.4 16.1 0.00 0.00 0.00 62 1010.7
20260506110039 13 354 9.7 16.1 0.00 0.00 0.00 61 1010.7
20260506105538 13 337 11.3 12.9 0.00 0.00 0.00 59 1010.6
20260506105038 14 290 0.0 6.4 0.00 0.00 0.00 57 1010.6
20260506104558 14 306 6.4 8.0 0.00 0.00 0.00 57 1010.6
20260506104038 14 190 3.2 14.5 0.00 0.00 0.00 56 1010.5
20260506103528 14 318 4.8 11.3 0.00 0.00 0.00 55 1010.5
20260506102908 14 206 4.8 8.0 0.00 0.00 0.00 53 1010.5
20260506102358 15 315 9.7 19.3 0.00 0.00 0.00 52 1010.6
20260506101838 15 195 4.8 12.9 0.00 0.00 0.00 51 1010.5
20260506101338 14 21 4.8 9.7 0.00 0.00 0.00 54 1010.5
20260506100838 14 16 9.7 16.1 0.00 0.00 0.00 57 1010.4
20260506100338 14 353 3.2 12.9 0.00 0.00 0.00 60 1010.5
20260506095858 15 309 9.7 16.1 0.00 0.00 0.00 57 1010.5
20260506095338 15 306 11.3 17.7 0.00 0.00 0.00 57 1010.5
20260506094858 15 304 11.3 11.3 0.00 0.00 0.00 58 1010.5
20260506094358 15 295 8.0 11.3 0.00 0.00 0.00 59 1010.4
20260506093808 14 147 4.8 12.9 0.00 0.00 0.00 60 1010.3
20260506093208 14 325 11.3 14.5 0.00 0.00 0.00 62 1010.4
20260506092638 13 300 8.0 12.9 0.00 0.00 0.00 65 1010.4
20260506092138 13 310 6.4 14.5 0.00 0.00 0.00 66 1010.4
20260506091658 13 288 9.7 12.9 0.00 0.00 0.00 65 1010.4
20260506091138 13 17 9.7 16.1 0.00 0.00 0.00 65 1010.3
20260506090638 13 319 3.2 6.4 0.00 0.00 0.00 66 1010.3